This is the latest recevied weather packets stored in our database for station/object K0SDS. If no packets are shown the sender has not sent any weather packets the latest 10 day(s).
| Time | Temp. | Humidity | Pressure | Rain* | Wind** | Luminosity | Snow |
|---|---|---|---|---|---|---|---|
| 1778121393 | 7.22° C | 77% | 1017.3 hPa | 0 mm | - | 0 W/m² | - |
| 1778121091 | 7.22° C | 76% | 1017.3 hPa | 0 mm | - | 0 W/m² | - |
| 1778120787 | 7.78° C | 76% | 1017.5 hPa | 0 mm | - | 0 W/m² | - |
| 1778120482 | 7.78° C | 75% | 1017.3 hPa | 0 mm | - | 0 W/m² | - |
| 1778120180 | 7.78° C | 74% | 1017.3 hPa | 0 mm | - | 0 W/m² | - |
| 1778119875 | 8.33° C | 72% | 1017 hPa | 0 mm | - | 0 W/m² | - |
| 1778119574 | 8.33° C | 71% | 1017 hPa | 0 mm | - | 0 W/m² | - |
| 1778119269 | 8.89° C | 69% | 1017.1 hPa | 0 mm | - | 0 W/m² | - |
| 1778118968 | 8.89° C | 66% | 1017 hPa | 0 mm | - | 0 W/m² | - |
| 1778118665 | 8.89° C | 67% | 1016.9 hPa | 0 mm | - | 0 W/m² | - |
| 1778118362 | 9.44° C | 66% | 1016.9 hPa | 0 mm | - | 0 W/m² | - |
| 1778118057 | 9.44° C | 68% | 1016.5 hPa | 0 mm | - | 0 W/m² | - |
| 1778117754 | 10° C | 63% | 1016.7 hPa | 0 mm | - | 0 W/m² | - |
| 1778117451 | 10° C | 61% | 1016.9 hPa | 0 mm | - | 0 W/m² | - |
| 1778117148 | 10.56° C | 61% | 1016.8 hPa | 0 mm | - | 0 W/m² | - |
| 1778116844 | 11.11° C | 61% | 1016.8 hPa | 0 mm | - | 0 W/m² | - |
| 1778116542 | 11.11° C | 59% | 1016.9 hPa | 0 mm | - | 3 W/m² | - |
| 1778116233 | 12.22° C | 62% | 1016.8 hPa | 0 mm | - | 4 W/m² | - |
| 1778115932 | 12.78° C | 57% | 1016.8 hPa | 0 mm | - | 7 W/m² | - |
| 1778115624 | 12.78° C | 59% | 1016.8 hPa | 0 mm | - | 10 W/m² | - |
| 1778115321 | 13.89° C | 51% | 1016.9 hPa | 0 mm | - | 13 W/m² | - |
| 1778115018 | 14.44° C | 47% | 1016.8 hPa | 0 mm | - | 16 W/m² | - |
| 1778114715 | 14.44° C | 42% | 1016.5 hPa | 0 mm | - | 20 W/m² | - |
| 1778114412 | 15° C | 37% | 1016.7 hPa | 0 mm | - | 23 W/m² | - |
| 1778114107 | 15.56° C | 38% | 1016.7 hPa | 0 mm | - | 25 W/m² | - |
* Rain latest hour (hover to see other rain measurements)
** Current wind speed in m/s (hover to see current wind gust speed)